﻿測定場所 (Monitoring sites),日付 (Measurement date),時間 (Measurement time),線量率 最大値 (max) μGy/h,線量率 最小値 (min) μGy/h,線量率 平均値 (average) μGy/h,
八王子 (Hachioji),2014-07-20,23:01～24:00,0.0394,0.0334,0.0362,
八王子 (Hachioji),2014-07-20,22:01～23:00,0.0512,0.0366,0.0443,
八王子 (Hachioji),2014-07-20,21:01～22:00,0.0624,0.0488,0.0569,
八王子 (Hachioji),2014-07-20,20:01～21:00,0.0595,0.0341,0.0476,
八王子 (Hachioji),2014-07-20,19:01～20:00,0.0368,0.0325,0.0345,
八王子 (Hachioji),2014-07-20,18:01～19:00,0.0365,0.0320,0.0343,
八王子 (Hachioji),2014-07-20,17:01～18:00,0.0364,0.0320,0.0345,
八王子 (Hachioji),2014-07-20,16:01～17:00,0.0374,0.0322,0.0344,
八王子 (Hachioji),2014-07-20,15:01～16:00,0.0363,0.0326,0.0341,
八王子 (Hachioji),2014-07-20,14:01～15:00,0.0368,0.0322,0.0344,
八王子 (Hachioji),2014-07-20,13:01～14:00,0.0366,0.0316,0.0344,
八王子 (Hachioji),2014-07-20,12:01～13:00,0.0363,0.0326,0.0343,
八王子 (Hachioji),2014-07-20,11:01～12:00,0.0365,0.0312,0.0342,
八王子 (Hachioji),2014-07-20,10:01～11:00,0.0363,0.0322,0.0341,
八王子 (Hachioji),2014-07-20,09:01～10:00,0.0359,0.0320,0.0340,
八王子 (Hachioji),2014-07-20,08:01～09:00,0.0360,0.0317,0.0341,
八王子 (Hachioji),2014-07-20,07:01～08:00,0.0365,0.0319,0.0342,
八王子 (Hachioji),2014-07-20,06:01～07:00,0.0356,0.0318,0.0340,
八王子 (Hachioji),2014-07-20,05:01～06:00,0.0363,0.0313,0.0338,
八王子 (Hachioji),2014-07-20,04:01～05:00,0.0357,0.0317,0.0337,
八王子 (Hachioji),2014-07-20,03:01～04:00,0.0354,0.0314,0.0337,
八王子 (Hachioji),2014-07-20,02:01～03:00,0.0362,0.0317,0.0341,
八王子 (Hachioji),2014-07-20,01:01～02:00,0.0366,0.0315,0.0337,
八王子 (Hachioji),2014-07-20,00:01～01:00,0.0367,0.0316,0.0342,
八王子 (Hachioji),2014-07-19,23:01～24:00,0.0397,0.0330,0.0354,
八王子 (Hachioji),2014-07-19,22:01～23:00,0.0414,0.0348,0.0378,
八王子 (Hachioji),2014-07-19,21:01～22:00,0.0423,0.0338,0.0371,
八王子 (Hachioji),2014-07-19,20:01～21:00,0.0503,0.0374,0.0439,
八王子 (Hachioji),2014-07-19,19:01～20:00,0.0529,0.0352,0.0453,
八王子 (Hachioji),2014-07-19,18:01～19:00,0.0379,0.0318,0.0341,
八王子 (Hachioji),2014-07-19,17:01～18:00,0.0365,0.0317,0.0340,
八王子 (Hachioji),2014-07-19,16:01～17:00,0.0368,0.0326,0.0347,
八王子 (Hachioji),2014-07-19,15:01～16:00,0.0378,0.0335,0.0358,
八王子 (Hachioji),2014-07-19,14:01～15:00,0.0412,0.0352,0.0373,
八王子 (Hachioji),2014-07-19,13:01～14:00,0.0374,0.0327,0.0345,
八王子 (Hachioji),2014-07-19,12:01～13:00,0.0361,0.0316,0.0340,
八王子 (Hachioji),2014-07-19,11:01～12:00,0.0366,0.0325,0.0345,
八王子 (Hachioji),2014-07-19,10:01～11:00,0.0366,0.0326,0.0347,
八王子 (Hachioji),2014-07-19,09:01～10:00,0.0366,0.0323,0.0344,
八王子 (Hachioji),2014-07-19,08:01～09:00,0.0359,0.0316,0.0342,
八王子 (Hachioji),2014-07-19,07:01～08:00,0.0363,0.0316,0.0342,
八王子 (Hachioji),2014-07-19,06:01～07:00,0.0362,0.0323,0.0340,
八王子 (Hachioji),2014-07-19,05:01～06:00,0.0362,0.0312,0.0340,
八王子 (Hachioji),2014-07-19,04:01～05:00,0.0362,0.0318,0.0342,
八王子 (Hachioji),2014-07-19,03:01～04:00,0.0357,0.0316,0.0340,
八王子 (Hachioji),2014-07-19,02:01～03:00,0.0360,0.0322,0.0344,
八王子 (Hachioji),2014-07-19,01:01～02:00,0.0366,0.0331,0.0349,
八王子 (Hachioji),2014-07-19,00:01～01:00,0.0368,0.0326,0.0350,
八王子 (Hachioji),2014-07-18,23:01～24:00,0.0387,0.0339,0.0361,
八王子 (Hachioji),2014-07-18,22:01～23:00,0.0391,0.0322,0.0352,
八王子 (Hachioji),2014-07-18,21:01～22:00,0.0415,0.0338,0.0364,
八王子 (Hachioji),2014-07-18,20:01～21:00,0.0471,0.0367,0.0411,
八王子 (Hachioji),2014-07-18,19:01～20:00,0.0450,0.0332,0.0379,
八王子 (Hachioji),2014-07-18,18:01～19:00,0.0368,0.0332,0.0349,
八王子 (Hachioji),2014-07-18,17:01～18:00,0.0364,0.0333,0.0349,
八王子 (Hachioji),2014-07-18,16:01～17:00,0.0369,0.0329,0.0349,
八王子 (Hachioji),2014-07-18,15:01～16:00,0.0370,0.0324,0.0348,
八王子 (Hachioji),2014-07-18,14:01～15:00,0.0389,0.0326,0.0350,
八王子 (Hachioji),2014-07-18,13:01～14:00,0.0374,0.0324,0.0349,
八王子 (Hachioji),2014-07-18,12:01～13:00,0.0367,0.0328,0.0347,
八王子 (Hachioji),2014-07-18,11:01～12:00,0.0368,0.0335,0.0352,
八王子 (Hachioji),2014-07-18,10:01～11:00,0.0367,0.0313,0.0350,
八王子 (Hachioji),2014-07-18,09:01～10:00,0.0373,0.0330,0.0347,
八王子 (Hachioji),2014-07-18,08:01～09:00,0.0382,0.0334,0.0356,
八王子 (Hachioji),2014-07-18,07:01～08:00,0.0397,0.0340,0.0365,
八王子 (Hachioji),2014-07-18,06:01～07:00,0.0395,0.0345,0.0366,
八王子 (Hachioji),2014-07-18,05:01～06:00,0.0394,0.0350,0.0371,
八王子 (Hachioji),2014-07-18,04:01～05:00,0.0380,0.0343,0.0358,
八王子 (Hachioji),2014-07-18,03:01～04:00,0.0390,0.0329,0.0354,
八王子 (Hachioji),2014-07-18,02:01～03:00,0.0408,0.0331,0.0353,
八王子 (Hachioji),2014-07-18,01:01～02:00,0.0370,0.0323,0.0346,
八王子 (Hachioji),2014-07-18,00:01～01:00,0.0374,0.0328,0.0348,
八王子 (Hachioji),2014-07-17,23:01～24:00,0.0373,0.0319,0.0350,
八王子 (Hachioji),2014-07-17,22:01～23:00,0.0369,0.0333,0.0352,
八王子 (Hachioji),2014-07-17,21:01～22:00,0.0381,0.0328,0.0351,
八王子 (Hachioji),2014-07-17,20:01～21:00,0.0369,0.0322,0.0350,
八王子 (Hachioji),2014-07-17,19:01～20:00,0.0370,0.0327,0.0349,
八王子 (Hachioji),2014-07-17,18:01～19:00,0.0370,0.0325,0.0349,
八王子 (Hachioji),2014-07-17,17:01～18:00,0.0370,0.0324,0.0351,
八王子 (Hachioji),2014-07-17,16:01～17:00,0.0369,0.0328,0.0347,
八王子 (Hachioji),2014-07-17,15:01～16:00,0.0371,0.0331,0.0351,
八王子 (Hachioji),2014-07-17,14:01～15:00,0.0372,0.0323,0.0350,
八王子 (Hachioji),2014-07-17,13:01～14:00,0.0369,0.0329,0.0353,
八王子 (Hachioji),2014-07-17,12:01～13:00,0.0370,0.0334,0.0352,
八王子 (Hachioji),2014-07-17,11:01～12:00,0.0373,0.0329,0.0353,
八王子 (Hachioji),2014-07-17,10:01～11:00,0.0373,0.0323,0.0352,
八王子 (Hachioji),2014-07-17,09:01～10:00,0.0368,0.0327,0.0351,
八王子 (Hachioji),2014-07-17,08:01～09:00,0.0369,0.0331,0.0351,
八王子 (Hachioji),2014-07-17,07:01～08:00,0.0366,0.0333,0.0353,
八王子 (Hachioji),2014-07-17,06:01～07:00,0.0372,0.0332,0.0353,
八王子 (Hachioji),2014-07-17,05:01～06:00,0.0371,0.0332,0.0353,
八王子 (Hachioji),2014-07-17,04:01～05:00,0.0371,0.0335,0.0353,
八王子 (Hachioji),2014-07-17,03:01～04:00,0.0383,0.0325,0.0350,
八王子 (Hachioji),2014-07-17,02:01～03:00,0.0375,0.0332,0.0351,
八王子 (Hachioji),2014-07-17,01:01～02:00,0.0363,0.0324,0.0346,
八王子 (Hachioji),2014-07-17,00:01～01:00,0.0365,0.0325,0.0347,
八王子 (Hachioji),2014-07-16,23:01～24:00,0.0366,0.0326,0.0348,
八王子 (Hachioji),2014-07-16,22:01～23:00,0.0368,0.0321,0.0348,
八王子 (Hachioji),2014-07-16,21:01～22:00,0.0372,0.0333,0.0355,
八王子 (Hachioji),2014-07-16,20:01～21:00,0.0392,0.0338,0.0355,
八王子 (Hachioji),2014-07-16,19:01～20:00,0.0385,0.0326,0.0351,
八王子 (Hachioji),2014-07-16,18:01～19:00,0.0371,0.0329,0.0353,
八王子 (Hachioji),2014-07-16,17:01～18:00,0.0374,0.0333,0.0354,
八王子 (Hachioji),2014-07-16,16:01～17:00,0.0381,0.0328,0.0354,
八王子 (Hachioji),2014-07-16,15:01～16:00,0.0373,0.0332,0.0354,
八王子 (Hachioji),2014-07-16,14:01～15:00,0.0377,0.0334,0.0353,
八王子 (Hachioji),2014-07-16,13:01～14:00,0.0383,0.0335,0.0355,
八王子 (Hachioji),2014-07-16,12:01～13:00,0.0370,0.0339,0.0354,
八王子 (Hachioji),2014-07-16,11:01～12:00,0.0377,0.0335,0.0356,
八王子 (Hachioji),2014-07-16,10:01～11:00,0.0372,0.0330,0.0357,
八王子 (Hachioji),2014-07-16,09:01～10:00,0.0395,0.0339,0.0360,
八王子 (Hachioji),2014-07-16,08:01～09:00,0.0391,0.0331,0.0363,
八王子 (Hachioji),2014-07-16,07:01～08:00,0.0386,0.0346,0.0363,
八王子 (Hachioji),2014-07-16,06:01～07:00,0.0397,0.0344,0.0368,
八王子 (Hachioji),2014-07-16,05:01～06:00,0.0392,0.0351,0.0367,
八王子 (Hachioji),2014-07-16,04:01～05:00,0.0370,0.0332,0.0353,
八王子 (Hachioji),2014-07-16,03:01～04:00,0.0370,0.0326,0.0350,
八王子 (Hachioji),2014-07-16,02:01～03:00,0.0373,0.0324,0.0350,
八王子 (Hachioji),2014-07-16,01:01～02:00,0.0366,0.0331,0.0349,
八王子 (Hachioji),2014-07-16,00:01～01:00,0.0374,0.0325,0.0348,
八王子 (Hachioji),2014-07-15,23:01～24:00,0.0365,0.0324,0.0347,
八王子 (Hachioji),2014-07-15,22:01～23:00,0.0369,0.0328,0.0349,
八王子 (Hachioji),2014-07-15,21:01～22:00,0.0369,0.0331,0.0348,
八王子 (Hachioji),2014-07-15,20:01～21:00,0.0368,0.0322,0.0349,
八王子 (Hachioji),2014-07-15,19:01～20:00,0.0364,0.0328,0.0349,
八王子 (Hachioji),2014-07-15,18:01～19:00,0.0371,0.0321,0.0351,
八王子 (Hachioji),2014-07-15,17:01～18:00,0.0367,0.0335,0.0350,
八王子 (Hachioji),2014-07-15,16:01～17:00,0.0372,0.0335,0.0351,
八王子 (Hachioji),2014-07-15,15:01～16:00,0.0371,0.0334,0.0353,
八王子 (Hachioji),2014-07-15,14:01～15:00,0.0374,0.0331,0.0352,
八王子 (Hachioji),2014-07-15,13:01～14:00,0.0366,0.0331,0.0350,
八王子 (Hachioji),2014-07-15,12:01～13:00,0.0387,0.0332,0.0352,
八王子 (Hachioji),2014-07-15,11:01～12:00,0.0375,0.0326,0.0350,
八王子 (Hachioji),2014-07-15,10:01～11:00,0.0368,0.0327,0.0351,
八王子 (Hachioji),2014-07-15,09:01～10:00,0.0372,0.0325,0.0353,
八王子 (Hachioji),2014-07-15,08:01～09:00,0.0375,0.0330,0.0351,
八王子 (Hachioji),2014-07-15,07:01～08:00,0.0383,0.0334,0.0351,
八王子 (Hachioji),2014-07-15,06:01～07:00,0.0369,0.0336,0.0352,
八王子 (Hachioji),2014-07-15,05:01～06:00,0.0390,0.0332,0.0353,
八王子 (Hachioji),2014-07-15,04:01～05:00,0.0367,0.0335,0.0351,
八王子 (Hachioji),2014-07-15,03:01～04:00,0.0371,0.0329,0.0350,
八王子 (Hachioji),2014-07-15,02:01～03:00,0.0375,0.0337,0.0354,
八王子 (Hachioji),2014-07-15,01:01～02:00,0.0370,0.0324,0.0355,
八王子 (Hachioji),2014-07-15,00:01～01:00,0.0370,0.0334,0.0354,
八王子 (Hachioji),2014-07-14,23:01～24:00,0.0369,0.0333,0.0353,
八王子 (Hachioji),2014-07-14,22:01～23:00,0.0370,0.0336,0.0350,
八王子 (Hachioji),2014-07-14,21:01～22:00,0.0365,0.0324,0.0345,
八王子 (Hachioji),2014-07-14,20:01～21:00,0.0364,0.0326,0.0344,
八王子 (Hachioji),2014-07-14,19:01～20:00,0.0371,0.0318,0.0347,
八王子 (Hachioji),2014-07-14,18:01～19:00,0.0368,0.0330,0.0349,
八王子 (Hachioji),2014-07-14,17:01～18:00,0.0374,0.0322,0.0351,
八王子 (Hachioji),2014-07-14,16:01～17:00,0.0376,0.0330,0.0350,
八王子 (Hachioji),2014-07-14,15:01～16:00,0.0366,0.0325,0.0348,
八王子 (Hachioji),2014-07-14,14:01～15:00,0.0366,0.0320,0.0350,
八王子 (Hachioji),2014-07-14,13:01～14:00,0.0372,0.0324,0.0352,
八王子 (Hachioji),2014-07-14,12:01～13:00,0.0371,0.0328,0.0354,
八王子 (Hachioji),2014-07-14,11:01～12:00,0.0373,0.0336,0.0355,
八王子 (Hachioji),2014-07-14,10:01～11:00,0.0372,0.0329,0.0353,
八王子 (Hachioji),2014-07-14,09:01～10:00,0.0384,0.0341,0.0357,
八王子 (Hachioji),2014-07-14,08:01～09:00,0.0380,0.0335,0.0357,
八王子 (Hachioji),2014-07-14,07:01～08:00,0.0405,0.0334,0.0362,
八王子 (Hachioji),2014-07-14,06:01～07:00,0.0398,0.0349,0.0367,
八王子 (Hachioji),2014-07-14,05:01～06:00,0.0394,0.0345,0.0365,
八王子 (Hachioji),2014-07-14,04:01～05:00,0.0384,0.0336,0.0360,
八王子 (Hachioji),2014-07-14,03:01～04:00,0.0371,0.0339,0.0355,
八王子 (Hachioji),2014-07-14,02:01～03:00,0.0373,0.0334,0.0354,
八王子 (Hachioji),2014-07-14,01:01～02:00,0.0377,0.0338,0.0357,
八王子 (Hachioji),2014-07-14,00:01～01:00,0.0375,0.0338,0.0357,
